User: anonymous   Login
Location: Hastringsfeld
(50.9620°N, 10.4787°E)
Time: 03:56:42
(UTC+00:00)
Language:

MSX - Orbit

View from above orbital plane
View from above orbital plane
View from above satellite
View from above satellite

Ground track
Ground track

The orbit data is extracted from the following two-line orbital elements,

1 23851U 96024A   24062.84683423  .00000164  00000-0  14543-3 0  9993
2 23851  98.9615   4.6513 0008316  28.5340 331.6277 13.98221574421433
Epoch (UTC): 02 March 2024 20:19:26
Eccentricity: 0.0008316
inclination: 98.9615°
perigee height: 894 km
apogee height: 906 km
right ascension of ascending node: 4.6513°
argument of perigee: 28.5340°
revolutions per day: 13.98221574
mean anomaly at epoch: 331.6277°
orbit number at epoch: 42143

The dashed part of the orbit path shows where the satellite is in the earth's shadow,  

DLR